LPPDLPLA

Guest
Details From LPPD - PONTA DELGADA
To LPLA - LAJES
Flight Number -
Tags generated
Created
Modified
Stats Distance 90 nm / 167 km
Max Altitude 9,600 ft / 2,926 m
Waypoints 3
Social Downloads 4
Likes 0
Share VATSIM

Download

Looking for another format? Having issues loading an existing format? Contact us
Advertisement - Login to hide

Notes

Basic altitude profile: - Ascent Rate: 2500ft/min - Ascent Speed: 250kts - Cruise Altitude: 35000ft - Cruise Speed: 420kts - Descent Rate: 1500ft/min - Descent Speed: 250kts Options: - Use NATs: yes - Use PACOTS: yes - Use low airways: yes - Use high airways: yes

Route

LPPD MIPRU LPLA

ID Type Via Altitude Latitude Longitude Leg Dist Tot Dist Heading (true) Name
O LPPD APT - 0 ft / 0 m 37.74208˚ -25.69774˚ - 0 nm - PONTA DELGADA
MIPRU FIX - 9,600 ft / 2,926 m 38.27361˚ -26.36472˚ 44 nm 44 nm 316° / 315° -
O LPLA APT - 0 ft / 0 m 38.76441˚ -27.09348˚ 45 nm 90 nm 311° / 310° LAJES

Altitude Profile

Advertisement - Login to hide

LPPD

Details ICAO LPPD (PDL)
Name PONTA DELGADA
Region Portugal
Timezone Atlantic/Azores (UTC+0.0)
Stats Elevation 259 ft / 79 m (AMSL)
Location 37.742078° -25.697736°
Runways 1
Magnetic Variation 8.299° W

METAR

LPPD 270400Z 35004KT 9999 FEW022 SCT035 14/09 Q1027

Decode

TAF

TAF LPPD 262300Z 2700/2724 VRB05KT 9999 SCT025 TEMPO 2700/2724 FEW020 BKN035 BECMG 2712/2714 19008KT

Decode

Departure Runways

ID Width Length Bearing (true) Bearing (mag) Surface Threshold Offset Overrun Length
12 148 ft / 45 m 8,179 ft / 2,493 m 111.77° 120.07° Asphalt 0 ft / 0 m 375 ft / 114 m
30 148 ft / 45 m 8,179 ft / 2,493 m 291.79° 300.09° Asphalt 787 ft / 240 m 0 ft / 0 m

LPLA

Details ICAO LPLA (TER)
Name LAJES
Region Portugal
Timezone Atlantic/Azores (UTC+0.0)
Stats Elevation 180 ft / 55 m (AMSL)
Location 38.764410° -27.093482°
Runways 1
Magnetic Variation 8.870° W

METAR

LPLA 270400Z /////KT 9999 FEW045 14/13 Q1027

Decode

TAF

TAF LPLA 262305Z 2700/2724 VRB05KT 9999 FEW030

Decode

Destination Runways

ID Width Length Bearing (true) Bearing (mag) Surface Threshold Offset Overrun Length
15 197 ft / 60 m 10,869 ft / 3,313 m 140.81° 149.68° Asphalt 0 ft / 0 m 991 ft / 302 m
33 197 ft / 60 m 10,869 ft / 3,313 m 320.82° 329.69° Asphalt 0 ft / 0 m 1,040 ft / 317 m

Approach Navaids

Runway Type Ident Frequency Range Bearing (true) Bearing (mag) Slope Elevation
15 Localiser DK 109.90 MHz 18 nm / 33 km 140.82° 149.69° - 180 ft / 55 m (AMSL)
15 Glidescope DK 109.90 MHz 10 nm / 19 km 140.81° 149.68° 3.00° 159 ft / 48 m (AMSL)
33 Localiser OZ 111.50 MHz 18 nm / 33 km 320.81° 329.68° - 158 ft / 48 m (AMSL)
33 Glidescope OZ 111.50 MHz 10 nm / 19 km 320.81° 329.68° 3.20° 180 ft / 55 m (AMSL)

Popular Alternatives